• In Netherlands
  • List of Countries
  • For 7 days
  • Water Temperature
  • Satellite Maps
  • Weather Map
  • Weather Widgets
  • user-avatar
    Login

    Hourly Weather Namibe

    Today, 1 March, Wednesday

    Time Temperature Precipitation Wind Pressure Humidity
    00:00 +26°C° 0 mm 3 mps 757 mmHg 81%
    01:00 +26°C° 0 mm 2 mps 757 mmHg 81%
    02:00 +26°C° 0 mm 2 mps 757 mmHg 82%
    03:00 +26°C° 0 mm 2 mps 757 mmHg 82%
    04:00 +26°C° 0 mm 2 mps 757 mmHg 83%
    05:00 +26°C° 0 mm 2 mps 757 mmHg 83%
    06:00 +26°C° 0 mm 2 mps 757 mmHg 83%
    07:00 +26°C° 0 mm 2 mps 758 mmHg 84%
    08:00 +26°C° 0 mm 2 mps 758 mmHg 80%
    09:00 +27°C° 0 mm 2 mps 758 mmHg 76%
    10:00 +28°C° 0 mm 2 mps 758 mmHg 72%
    11:00 +29°C° 0 mm 2 mps 758 mmHg 66%
    12:00 +30°C° 0 mm 3 mps 757 mmHg 61%
    13:00 +30°C° 0 mm 3 mps 757 mmHg 56%
    14:00 +32°C° 0 mm 4 mps 757 mmHg 52%
    15:00 +33°C° 0 mm 4 mps 756 mmHg 49%
    16:00 +34°C° 0 mm 5 mps 755 mmHg 45%
    17:00 +32°C° 0 mm 5 mps 755 mmHg 51%
    18:00 +30°C° 0 mm 5 mps 756 mmHg 58%
    19:00 +29°C° 0 mm 5 mps 756 mmHg 64%
    20:00 +28°C° 0 mm 5 mps 756 mmHg 67%
    21:00 +28°C° 0 mm 4 mps 757 mmHg 70%
    22:00 +27°C° 0 mm 4 mps 757 mmHg 72%
    23:00 +27°C° 0 mm 4 mps 757 mmHg 74%

    Tomorrow, 2 March, Thursday

    Time Temperature Precipitation Wind Pressure Humidity
    00:00 +27°C° 0 mm 3 mps 757 mmHg 76%
    01:00 +26°C° 0 mm 3 mps 757 mmHg 78%
    02:00 +26°C° 0 mm 3 mps 757 mmHg 80%
    03:00 +26°C° 0 mm 2 mps 757 mmHg 81%
    04:00 +25°C° 0 mm 2 mps 757 mmHg 83%
    05:00 +25°C° 0 mm 2 mps 757 mmHg 83%
    06:00 +25°C° 0 mm 2 mps 757 mmHg 83%
    07:00 +25°C° 0 mm 2 mps 758 mmHg 83%
    08:00 +27°C° 0 mm 2 mps 758 mmHg 74%
    09:00 +29°C° 0 mm 2 mps 758 mmHg 65%
    10:00 +31°C° 0 mm 2 mps 758 mmHg 56%
    11:00 +33°C° 0 mm 3 mps 758 mmHg 51%
    12:00 +35°C° 0 mm 4 mps 757 mmHg 47%
    13:00 +36°C° 0 mm 5 mps 757 mmHg 42%
    14:00 +35°C° 0 mm 5 mps 756 mmHg 45%
    15:00 +35°C° 0 mm 6 mps 756 mmHg 47%
    16:00 +34°C° 0 mm 6 mps 755 mmHg 50%
    17:00 +32°C° 0 mm 6 mps 755 mmHg 57%
    18:00 +29°C° 0 mm 5 mps 756 mmHg 64%
    19:00 +28°C° 0 mm 5 mps 756 mmHg 72%
    20:00 +27°C° 0 mm 4 mps 757 mmHg 73%
    21:00 +27°C° 0 mm 3 mps 757 mmHg 75%
    22:00 +27°C° 0 mm 3 mps 758 mmHg 77%
    23:00 +27°C° 0 mm 3 mps 757 mmHg 77%

    Day after tomorrow, 3 March, Friday

    Time Temperature Precipitation Wind Pressure Humidity
    00:00 +26°C° 0 mm 2 mps 757 mmHg 78%
    01:00 +26°C° 0 mm 2 mps 757 mmHg 78%
    02:00 +26°C° 0 mm 2 mps 757 mmHg 79%
    03:00 +26°C° 0 mm 2 mps 756 mmHg 79%
    04:00 +26°C° 0 mm 2 mps 756 mmHg 79%
    05:00 +26°C° 0 mm 1 mps 756 mmHg 79%
    06:00 +26°C° 0 mm 1 mps 756 mmHg 79%
    07:00 +26°C° 0 mm 1 mps 757 mmHg 78%
    08:00 +28°C° 0 mm 1 mps 757 mmHg 70%
    09:00 +29°C° 0 mm 2 mps 757 mmHg 63%
    10:00 +31°C° 0 mm 2 mps 757 mmHg 55%
    11:00 +33°C° 0 mm 3 mps 757 mmHg 51%
    12:00 +35°C° 0 mm 4 mps 756 mmHg 46%
    13:00 +36°C° 0 mm 5 mps 755 mmHg 42%
    14:00 +35°C° 0 mm 5 mps 755 mmHg 47%
    15:00 +34°C° 0 mm 6 mps 754 mmHg 51%
    16:00 +33°C° 0 mm 7 mps 754 mmHg 56%
    17:00 +32°C° 0 mm 6 mps 754 mmHg 63%
    18:00 +29°C° 0 mm 5 mps 755 mmHg 70%
    19:00 +28°C° 0 mm 4 mps 755 mmHg 77%
    20:00 +27°C° 0 mm 4 mps 756 mmHg 77%
    21:00 +27°C° 0 mm 3 mps 756 mmHg 78%
    22:00 +27°C° 0 mm 3 mps 757 mmHg 78%
    23:00 +27°C° 0 mm 2 mps 756 mmHg 78%

    4 March, Saturday

    Time Temperature Precipitation Wind Pressure Humidity
    00:00 +27°C° 0 mm 2 mps 756 mmHg 78%
    01:00 +27°C° 0 mm 2 mps 756 mmHg 78%
    02:00 +27°C° 0 mm 2 mps 755 mmHg 78%
    03:00 +27°C° 0 mm 1 mps 755 mmHg 78%
    04:00 +27°C° 0 mm 1 mps 754 mmHg 78%
    05:00 +27°C° 0 mm 1 mps 755 mmHg 79%
    06:00 +27°C° 0 mm 2 mps 755 mmHg 80%
    07:00 +27°C° 0 mm 2 mps 756 mmHg 80%
    08:00 +28°C° 0 mm 2 mps 756 mmHg 75%
    09:00 +29°C° 0 mm 3 mps 756 mmHg 69%
    10:00 +30°C° 0 mm 3 mps 756 mmHg 64%
    11:00 +32°C° 0 mm 4 mps 756 mmHg 60%
    12:00 +33°C° 0 mm 4 mps 756 mmHg 57%
    13:00 +34°C° 0 mm 5 mps 755 mmHg 54%
    14:00 +33°C° 0 mm 5 mps 755 mmHg 55%
    15:00 +33°C° 0 mm 5 mps 754 mmHg 56%
    16:00 +33°C° 0 mm 5 mps 754 mmHg 58%
    17:00 +30°C° 0 mm 5 mps 754 mmHg 63%
    18:00 +29°C° 0 mm 4 mps 755 mmHg 68%
    19:00 +28°C° 0 mm 4 mps 755 mmHg 74%
    20:00 +27°C° 0 mm 3 mps 755 mmHg 75%
    21:00 +27°C° 0 mm 3 mps 756 mmHg 76%
    22:00 +27°C° 0 mm 2 mps 757 mmHg 78%
    23:00 +26°C° 0 mm 2 mps 756 mmHg 78%

    5 March, Sunday

    Time Temperature Precipitation Wind Pressure Humidity
    00:00 +26°C° 0 mm 2 mps 756 mmHg 79%
    01:00 +26°C° 0 mm 1 mps 756 mmHg 79%
    02:00 +26°C° 0 mm 1 mps 756 mmHg 80%
    03:00 +26°C° 0 mm 1 mps 756 mmHg 80%
    04:00 +26°C° 0 mm 1 mps 756 mmHg 80%
    05:00 +26°C° 0 mm 1 mps 756 mmHg 80%
    06:00 +26°C° 0 mm 1 mps 756 mmHg 80%
    07:00 +26°C° 0 mm 1 mps 757 mmHg 79%
    08:00 +28°C° 0 mm 1 mps 757 mmHg 72%
    09:00 +30°C° 0 mm 2 mps 757 mmHg 64%
    10:00 +31°C° 0 mm 2 mps 757 mmHg 57%
    11:00 +33°C° 0 mm 3 mps 756 mmHg 55%
    12:00 +34°C° 0 mm 4 mps 756 mmHg 53%
    13:00 +35°C° 0 mm 5 mps 755 mmHg 51%
    14:00 +34°C° 0 mm 5 mps 755 mmHg 52%
    15:00 +34°C° 0 mm 5 mps 754 mmHg 53%
    16:00 +34°C° 0 mm 6 mps 754 mmHg 54%
    17:00 +32°C° 0 mm 5 mps 754 mmHg 60%
    18:00 +30°C° 0 mm 5 mps 755 mmHg 65%
    19:00 +28°C° 0 mm 5 mps 755 mmHg 71%
    20:00 +28°C° 0 mm 4 mps 756 mmHg 72%
    21:00 +28°C° 0 mm 4 mps 756 mmHg 73%
    22:00 +28°C° 0 mm 3 mps 757 mmHg 74%
    23:00 +28°C° 0 mm 3 mps 756 mmHg 74%

    6 March, Monday

    Time Temperature Precipitation Wind Pressure Humidity
    00:00 +28°C° 0 mm 2 mps 756 mmHg 74%
    01:00 +27°C° 0 mm 2 mps 756 mmHg 73%
    02:00 +27°C° 0 mm 2 mps 756 mmHg 74%
    03:00 +27°C° 0 mm 2 mps 756 mmHg 74%
    04:00 +27°C° 0 mm 1 mps 755 mmHg 74%
    05:00 +27°C° 0 mm 1 mps 756 mmHg 74%
    06:00 +27°C° 0 mm 1 mps 756 mmHg 74%
    07:00 +27°C° 0 mm 1 mps 756 mmHg 73%
    08:00 +29°C° 0 mm 2 mps 756 mmHg 67%
    09:00 +30°C° 0 mm 2 mps 757 mmHg 60%
    10:00 +32°C° 0 mm 2 mps 757 mmHg 53%
    11:00 +34°C° 0 mm 3 mps 756 mmHg 50%
    12:00 +36°C° 0 mm 4 mps 755 mmHg 46%
    13:00 +38°C° 0 mm 6 mps 755 mmHg 43%
    14:00 +36°C° 0 mm 6 mps 755 mmHg 46%
    15:00 +35°C° 0 mm 6 mps 754 mmHg 49%
    16:00 +34°C° 0 mm 7 mps 754 mmHg 52%
    17:00 +33°C° 0 mm 6 mps 754 mmHg 58%
    18:00 +30°C° 0 mm 6 mps 755 mmHg 63%
    19:00 +29°C° 0 mm 5 mps 755 mmHg 69%
    20:00 +28°C° 0 mm 5 mps 756 mmHg 68%
    21:00 +28°C° 0 mm 4 mps 756 mmHg 68%
    22:00 +28°C° 0 mm 3 mps 756 mmHg 68%
    23:00 +28°C° 0 mm 3 mps 756 mmHg 68%
    Show more